Regional Weather Roundup
Issued by NWS

Home | Current Version | Previous Version | Text Only | Print | Product List | Glossary Off
Versions: 1 2 3 4 5 6 7 8 9 10 11 12 13 14 15 16 17 18 19 20 21 22 23 24 25 26 27 28 29 30 31 32 33 34 35 36 37 38 39 40 41 42 43 44 45 46 47 48 49 50

000
ASUS43 KMPX 030601
RWRMN
WEATHER ROUNDUP FOR MINNESOTA
NATIONAL WEATHER SERVICE TWIN CITIES/CHANHASSEN MN
1200 AM CST SAT DEC 03 2016


NOTE: "FAIR" INDICATES FEW OR NO CLOUDS BELOW 12,000 FEET WITH NO
SIGNIFICANT WEATHER AND/OR OBSTRUCTIONS TO VISIBILITY. N/A MEANS
CURRENT SKY AND/OR WEATHER CONDITIONS ARE NOT AVAILABLE.

MNZ060>063-068>070-030700-
   Twin Cities Metro

CITY           SKY/WX    TMP DP  RH WIND       PRES   REMARKS
TWIN CITIES    CLOUDY    30  23  75 SW10      30.31S WCI  21
6HR MIN TEMP:  30; 6HR MAX TEMP:  32; 6HR PCP: TRACE;

ST PAUL        CLOUDY    30  25  81 SW8       30.32S WCI  22
CRYSTAL        CLOUDY    30  22  72 NW3       30.29S
BLAINE         CLOUDY    30  27  86 CALM      30.29S
LAKEVILLE      CLOUDY    28  23  80 SW3       30.31S
EDEN PRAIRIE   CLOUDY    30  23  75 SW8       30.30R WCI  22
6HR MIN TEMP:  30; 6HR MAX TEMP:  31;

SOUTH ST PAUL  CLOUDY    31  24  74 SW6       30.31S WCI  25
LAKE ELMO      CLOUDY    32  27  80 W3        30.30S
$$
MNZ001>005-007-008-013>017-022>024-027-028-030700-
   Northwest Minnesota

CITY           SKY/WX    TMP DP  RH WIND       PRES   REMARKS
BEMIDJI        CLOUDY    25  19  80 CALM      30.25R
HALLOCK        CLOUDY    30  27  86 SE6       30.23S WCI  24
ROSEAU         CLOUDY    25  21  86 CALM      30.24S
WARROAD        CLOUDY    25  19  80 NW5       30.25S WCI  19
THIEF RVR FALL CLOUDY    28  21  75 SW6       30.25  WCI  22
CROOKSTON      CLOUDY    28  21  74 S7        30.27S WCI  21
FOSSTON        CLOUDY    25  18  74 SW6       30.26R WCI  18
DETROIT LAKES  CLOUDY    28  21  74 CALM      30.27S
MOORHEAD       CLOUDY    27  18  69 S3        30.29F
PARK RAPIDS    CLOUDY    25  16  68 W5        30.26R WCI  19
$$
MNZ006-009>011-018-025>026-030700-
   North Central Minnesota

CITY           SKY/WX    TMP DP  RH WIND       PRES   REMARKS
BAUDETTE       CLOUDY    23  20  88 S5        30.24S WCI  17
FLAG ISLAND    CLOUDY    23  21  93 W5        30.23S WCI  17
INTL FALLS     CLOUDY    23  19  85 W6        30.25  WCI  16
6HR MIN TEMP:  23; 6HR MAX TEMP:  24;

WASKISH        CLOUDY    25  21  86 CALM      30.25S
BIG FORK       CLOUDY    25  19  80 W5        30.25S WCI  19
LONGVILLE      CLOUDY    25  19  80 W5        30.27S WCI  19
GRAND RAPIDS   CLOUDY    24  20  84 W7        30.27  WCI  16
CRANE LAKE     CLOUDY    21  19  93 CALM      30.28R
ORR            CLOUDY    21  19  93 CALM      30.22S
COOK           CLOUDY    21  21 100 W3        30.25R
$$
MNZ012-019>021-037-030700-
   Northeast Minnesota

CITY           SKY/WX    TMP DP  RH WIND       PRES   REMARKS
DULUTH         CLOUDY    27  23  85 NW6       30.23S WCI  20
6HR MIN TEMP:  27; 6HR MAX TEMP:  29;

ELY            CLOUDY    25  25 100 W5        30.22S WCI  19
HIBBING        CLOUDY    24  22  91 NW6       30.24S WCI  17
EVELETH        CLOUDY    25  22  90 W6        30.25S WCI  18
DULUTH HARBOR  CLOUDY    30  27  86 W9        30.29R WCI  22
TWO HARBORS    CLOUDY    30  27  86 W3        30.23R
SILVER BAY     CLOUDY    28  25  86 N3        30.23R
GRAND MARAIS     N/A     32  26  78 N7        30.25R WCI  26
G MARAIS ARPRT LGT SNOW  25  21  86 CALM      30.19S
$$
MNZ029>031-032-039>041-046>048-054>057-064-030700-
   West Central Minnesota

CITY           SKY/WX    TMP DP  RH WIND       PRES   REMARKS
FERGUS FALLS   CLOUDY    25  18  74 W3        30.33S
WHEATON        CLOUDY   N/A N/A N/A SW6       30.32S
MORRIS         CLOUDY    27  19  74 CALM      30.29S
ALEXANDRIA     CLOUDY    25  19  78 W7        30.28S WCI  17
ELBOW LAKE     CLOUDY    25  19  79 CALM      30.29S
WADENA         CLOUDY    25  18  74 W6        30.27S WCI  18
GLENWOOD       CLOUDY    25  19  80 W3        30.29S
APPLETON       CLOUDY    28  19  69 W3        30.31R
BENSON         CLOUDY    27  18  69 CALM      30.31R
ORTONVILLE     CLOUDY    27  18  69 CALM      30.30S
MADISON        CLOUDY    30  21  69 CALM      30.31S
WILLMAR        CLOUDY    28  21  74 CALM      30.31S
$$
MNZ033>034-036-042>043-049>051-058-059-030700-
   Central Minnesota

CITY           SKY/WX    TMP DP  RH WIND       PRES   REMARKS
ST CLOUD       CLOUDY    28  23  81 CALM      30.29S
6HR MIN TEMP:  28; 6HR MAX TEMP:  29;

PAYNESVILLE    CLOUDY    27  22  80 W6        30.30S WCI  21
AITKIN         CLOUDY    28  21  74 CALM      30.26S
PINE RIVER     CLOUDY    25  21  86 CALM      30.30R
BRAINERD       CLOUDY    25  21  85 W8        30.28S WCI  16
STAPLES        CLOUDY    25  19  80 W3        30.28R
LONG PRAIRIE   CLOUDY    27  19  74 N3        30.28S
LITTLE FALLS   CLOUDY    28  21  74 NW3       30.28S
LITCHFIELD     CLOUDY    28  23  80 SW3       30.30S
BUFFALO        CLOUDY    29  24  81 SW5       30.31S WCI  24
MAPLE LAKE     CLOUDY    29  26  88 W3        30.31S
$$
MNZ037-044-045-052-053-030700-
   East Central Minnesota

CITY           SKY/WX    TMP DP  RH WIND       PRES   REMARKS
PRINCETON      CLOUDY    28  25  86 CALM      30.29F
MORA           CLOUDY    28  23  80 W5        30.30S WCI  23
CAMBRIDGE      CLOUDY    30  21  69 W3        30.28S
RUSH CITY      CLOUDY    28  25  86 W3        30.29S
MOOSE LAKE     CLOUDY    28  23  80 NW5       30.25S WCI  23
HINCKLEY       CLOUDY    30  27  86 NW6       30.28S WCI  24
CLOQUET        CLOUDY    27  21  80 NW6       30.25R WCI  20
MCGREGOR       CLOUDY    28  23  80 W3        30.27S
$$
MNZ071>073-080-081-089-090-097-098-030700-
   Southwest Minnesota

CITY           SKY/WX    TMP DP  RH WIND       PRES   REMARKS
MONTEVIDEO     CLOUDY    27  25  93 CALM      30.33R
GRANITE FALLS  CLOUDY    30  24  77 SW5       30.33S WCI  25
CANBY          CLOUDY    28  21  75 CALM      30.32S
MARSHALL       CLOUDY    27  21  78 NW6       30.32  WCI  20
REDWOOD FALLS  CLOUDY    29  20  69 NW3       30.32R
OLIVIA         CLOUDY    30  23  74 NW3       30.31R
PIPESTONE      CLOUDY    27  21  80 NW6       30.29S WCI  20
WINDOM         CLOUDY    28  19  69 NW12G18   30.30S WCI  18
WORTHINGTON    CLOUDY    27  22  81 NW8       30.30  WCI  19
JACKSON        CLOUDY    28  21  74 NW6       30.30S WCI  22
TRACY          CLOUDY    28  22  78 NW5       30.31S WCI  23
SLAYTON        CLOUDY    26  21  81 W6        30.30S WCI  19
$$
MNZ065>067-074>077-082>085-091>093-030700-
   South Central Minnesota

CITY           SKY/WX    TMP DP  RH WIND       PRES   REMARKS
MANKATO        CLOUDY    29  22  75 W5        30.32  WCI  24
NEW ULM        CLOUDY    28  21  74 N3        30.31S
ST JAMES       CLOUDY    28  19  69 W8        30.32S WCI  20
FAIRMONT       CLOUDY    30  21  69 W8        30.31F WCI  22
GLENCOE        CLOUDY    30  25  81 W3        30.31R
FARIBAULT      CLOUDY    28  21  74 W6        30.31F WCI  22
OWATONNA       CLOUDY    28  21  74 W9        30.31S WCI  20
WASECA         CLOUDY    30  25  80 W6        30.32F WCI  24
ALBERT LEA     CLOUDY    32  27  80 NW3       30.30F
$$
MNZ078>079-086>088-094>096-030700-
   Southeast Minnesota

CITY           SKY/WX    TMP DP  RH WIND       PRES   REMARKS
ROCHESTER      CLOUDY    28  22  78 W9        30.30S WCI  19
6HR MIN TEMP:  28; 6HR MAX TEMP:  29;

RED WING       CLOUDY    30  21  69 W8        30.31R WCI  23
STANTON        CLOUDY    31  22  71 W5        30.30F WCI  26
DODGE CENTER   CLOUDY    27  21  80 W8        30.30S WCI  18
WINONA         CLOUDY    32  23  69 W8        30.33S WCI  25
AUSTIN         CLOUDY    28  21  74 NW6       30.30F WCI  22
PRESTON        CLOUDY    28  22  80 W8        30.31S WCI  19
$$
ABBREVIATIONS USED IN REMARKS
   TC - TEMPERATURES IN CELSIUS
  WCI - WIND CHILL INDEX
   HX - HEAT INDEX
  VSB - VISIBILITY
$$



USA.gov is the U.S. government's official web portal to all federal, state and local government web resources and services.